Вернуться в каталог

STARLINK-5523

АктивенСвязьVLEO
NORAD 56470·PAYLOAD·🇺🇸 United States

Запущен May 10, 2023 с Vandenberg Space Force Base

Loading…

Ближайшие Пролёты (ближайшие 24 часа)

TLE

СвежийSource: CelesTrak SupGP

Эпоха: Sep 14, 2026, 20:52 UTC

1 56470C 23064Y   26257.86993056  .00370220  00000+0  30943-1 0  2575
2 56470  70.0023   7.6150 0003109 275.7052  60.9014 14.98247538    18

Отслеживайте STARLINK-5523 в реальном времени с AllMySat

Download on the App Store